HAZ717 ZSAM-VMMC

Flight info

Callsign HAZ717
Flight time 1h 12m
Altitude 36100
Route NUSP9Z NUSPA W597 IKATA A470 DOTMI SAMMI J101 SMT SMT5B
Aircraft A339/H-SADE1E2E3GHIJ3J5M1P2RWXY/LB2D1

Departure

Time 2026-04-17 07:25
Airport Xiamen Gaoqi International Airport (ZSAM)

Arrival

Time 2026-04-17 08:37
Airport Macau International Airport (VMMC)
Time Latitude Longitude Altitude Speed Heading
2026-04-17 07:08 24.54762 118.13956 83 ft 0 kts 52°
2026-04-17 07:14 24.54759 118.13951 83 ft 2 kts 52°
2026-04-17 07:14 24.54749 118.13938 83 ft 2 kts 51°
2026-04-17 07:14 24.54740 118.13925 83 ft 2 kts 52°
2026-04-17 07:14 24.54731 118.13913 83 ft 1 kts 52°
2026-04-17 07:15 24.54725 118.13904 83 ft 2 kts 41°
2026-04-17 07:15 24.54712 118.13896 83 ft 2 kts 13°
2026-04-17 07:15 24.54697 118.13895 83 ft 2 kts 351°
2026-04-17 07:15 24.54682 118.13899 83 ft 2 kts 327°
2026-04-17 07:16 24.54677 118.13904 83 ft 1 kts 321°
2026-04-17 07:16 24.54676 118.13905 83 ft 0 kts 321°
2026-04-17 07:17 24.54716 118.13869 83 ft 8 kts 322°
2026-04-17 07:18 24.54778 118.13818 83 ft 12 kts 323°
2026-04-17 07:18 24.54848 118.13757 83 ft 12 kts 315°
2026-04-17 07:18 24.54851 118.13669 84 ft 12 kts 239°
2026-04-17 07:18 24.54797 118.13591 84 ft 13 kts 232°
2026-04-17 07:19 24.54738 118.13508 84 ft 14 kts 232°
2026-04-17 07:19 24.54676 118.13419 84 ft 14 kts 232°
2026-04-17 07:19 24.54611 118.13330 84 ft 15 kts 231°
2026-04-17 07:19 24.54542 118.13238 84 ft 15 kts 230°
2026-04-17 07:20 24.54475 118.13142 84 ft 16 kts 233°
2026-04-17 07:20 24.54404 118.13044 84 ft 16 kts 231°
2026-04-17 07:20 24.54334 118.12945 84 ft 16 kts 232°
2026-04-17 07:20 24.54261 118.12843 84 ft 16 kts 232°
2026-04-17 07:21 24.54188 118.12741 84 ft 17 kts 232°
2026-04-17 07:21 24.54115 118.12640 84 ft 17 kts 231°
2026-04-17 07:21 24.54039 118.12537 84 ft 17 kts 232°
2026-04-17 07:21 24.53966 118.12430 84 ft 17 kts 232°
2026-04-17 07:22 24.53884 118.12315 84 ft 19 kts 232°
2026-04-17 07:22 24.53801 118.12199 84 ft 19 kts 232°
2026-04-17 07:22 24.53718 118.12082 85 ft 19 kts 231°
2026-04-17 07:22 24.53637 118.11969 85 ft 18 kts 232°
2026-04-17 07:23 24.53556 118.11856 85 ft 18 kts 231°
2026-04-17 07:23 24.53477 118.11746 85 ft 18 kts 233°
2026-04-17 07:23 24.53403 118.11634 85 ft 16 kts 250°
2026-04-17 07:23 24.53416 118.11515 85 ft 13 kts 291°
2026-04-17 07:24 24.53480 118.11481 85 ft 10 kts 17°
2026-04-17 07:24 24.53537 118.11534 85 ft 15 kts 51°
2026-04-17 07:24 24.53738 118.11818 85 ft 78 kts 51°
2026-04-17 07:24 24.54192 118.12453 84 ft 132 kts 51°
2026-04-17 07:25 24.54865 118.13389 129 ft 172 kts 51°
2026-04-17 07:25 24.55625 118.14444 551 ft 177 kts 52°
2026-04-17 07:25 24.56377 118.15499 1082 ft 179 kts 53°
2026-04-17 07:25 24.57141 118.16575 1629 ft 180 kts 53°
2026-04-17 07:26 24.57933 118.17688 2057 ft 190 kts 53°
2026-04-17 07:26 24.58776 118.18877 2372 ft 206 kts 52°
2026-04-17 07:26 24.59681 118.20149 2808 ft 215 kts 52°
2026-04-17 07:26 24.60606 118.21450 3347 ft 219 kts 51°
2026-04-17 07:27 24.61535 118.22772 3940 ft 221 kts 56°
2026-04-17 07:27 24.62026 118.24358 4475 ft 224 kts 94°
2026-04-17 07:27 24.61573 118.25936 5006 ft 223 kts 130°
2026-04-17 07:27 24.60354 118.26958 5541 ft 220 kts 166°
2026-04-17 07:28 24.58869 118.27075 6074 ft 217 kts 190°
2026-04-17 07:28 24.57351 118.26852 6636 ft 219 kts 191°
2026-04-17 07:28 24.55841 118.26620 7195 ft 220 kts 196°
2026-04-17 07:28 24.54499 118.25930 7725 ft 214 kts 227°
2026-04-17 07:29 24.53549 118.24707 8307 ft 212 kts 236°
2026-04-17 07:29 24.52694 118.23407 8882 ft 212 kts 236°
2026-04-17 07:29 24.51824 118.22112 9455 ft 212 kts 235°
2026-04-17 07:29 24.50911 118.20793 9904 ft 220 kts 234°
2026-04-17 07:30 24.49951 118.19412 10180 ft 235 kts 234°
2026-04-17 07:30 24.48932 118.17956 10461 ft 251 kts 234°
2026-04-17 07:30 24.47821 118.16377 10748 ft 267 kts 234°
2026-04-17 07:30 24.46644 118.14711 11029 ft 284 kts 234°
2026-04-17 07:31 24.45407 118.12964 11308 ft 300 kts 234°
2026-04-17 07:31 24.44093 118.11111 11593 ft 315 kts 234°
2026-04-17 07:31 24.42716 118.09172 11852 ft 331 kts 234°
2026-04-17 07:31 24.41263 118.07127 12170 ft 344 kts 234°
2026-04-17 07:32 24.39783 118.05045 12739 ft 349 kts 234°
2026-04-17 07:32 24.38284 118.02940 13384 ft 352 kts 234°
2026-04-17 07:32 24.36770 118.00812 14018 ft 354 kts 234°
2026-04-17 07:32 24.35259 117.98689 14616 ft 357 kts 234°
2026-04-17 07:33 24.33723 117.96532 15224 ft 360 kts 234°
2026-04-17 07:33 24.32163 117.94342 15828 ft 363 kts 234°
2026-04-17 07:33 24.30601 117.92151 16406 ft 366 kts 234°
2026-04-17 07:33 24.29039 117.89961 16978 ft 368 kts 234°
2026-04-17 07:34 24.27457 117.87746 17563 ft 371 kts 234°
2026-04-17 07:34 24.25853 117.85529 18110 ft 374 kts 233°
2026-04-17 07:34 24.24130 117.83376 18665 ft 378 kts 230°
2026-04-17 07:34 24.22290 117.81323 19219 ft 381 kts 227°
2026-04-17 07:35 24.20382 117.79269 19759 ft 384 kts 227°
2026-04-17 07:35 24.18495 117.77238 20268 ft 386 kts 227°
2026-04-17 07:35 24.16573 117.75174 20787 ft 389 kts 227°
2026-04-17 07:35 24.14632 117.73090 21278 ft 391 kts 227°
2026-04-17 07:36 24.12688 117.71005 21769 ft 394 kts 227°
2026-04-17 07:36 24.10712 117.68887 22241 ft 396 kts 227°
2026-04-17 07:36 24.08742 117.66775 22704 ft 398 kts 227°
2026-04-17 07:36 24.06752 117.64644 23160 ft 401 kts 227°
2026-04-17 07:37 24.04757 117.62508 23597 ft 403 kts 227°
2026-04-17 07:37 24.02755 117.60362 24027 ft 405 kts 227°
2026-04-17 07:37 24.00752 117.58213 24455 ft 408 kts 227°
2026-04-17 07:37 23.98711 117.56024 24867 ft 410 kts 227°
2026-04-17 07:38 23.96686 117.53856 25278 ft 412 kts 227°
2026-04-17 07:38 23.94626 117.51650 25676 ft 414 kts 227°
2026-04-17 07:38 23.92559 117.49436 26068 ft 416 kts 227°
2026-04-17 07:38 23.90490 117.47222 26446 ft 418 kts 227°
2026-04-17 07:39 23.88423 117.45011 26822 ft 420 kts 227°
2026-04-17 07:39 23.86371 117.42693 27176 ft 420 kts 233°
2026-04-17 07:39 23.84670 117.40104 27510 ft 420 kts 241°
2026-04-17 07:39 23.83349 117.37300 27850 ft 421 kts 249°
2026-04-17 07:40 23.82370 117.34285 28202 ft 422 kts 253°
2026-04-17 07:40 23.81496 117.31238 28565 ft 423 kts 253°
2026-04-17 07:40 23.80623 117.28144 28798 ft 428 kts 253°
2026-04-17 07:40 23.79750 117.25054 29000 ft 433 kts 253°
2026-04-17 07:41 23.78879 117.22005 29394 ft 433 kts 252°
2026-04-17 07:41 23.77808 117.18948 29902 ft 431 kts 248°
2026-04-17 07:41 23.76521 117.16014 30408 ft 428 kts 243°
2026-04-17 07:41 23.75026 117.13195 30858 ft 428 kts 239°
2026-04-17 07:42 23.73342 117.10529 31285 ft 428 kts 235°
2026-04-17 07:42 23.71466 117.08003 31707 ft 428 kts 231°
2026-04-17 07:42 23.69464 117.05651 32136 ft 427 kts 230°
2026-04-17 07:42 23.67421 117.03307 32557 ft 425 kts 229°
2026-04-17 07:43 23.65388 117.00984 32977 ft 424 kts 229°
2026-04-17 07:43 23.63363 116.98679 33424 ft 423 kts 230°
2026-04-17 07:43 23.61315 116.96347 33849 ft 421 kts 229°
2026-04-17 07:43 23.59305 116.94057 34246 ft 420 kts 230°
2026-04-17 07:44 23.57294 116.91769 34593 ft 420 kts 229°
2026-04-17 07:44 23.55251 116.89448 34892 ft 421 kts 229°
2026-04-17 07:44 23.53224 116.87144 35157 ft 423 kts 230°
2026-04-17 07:44 23.51176 116.84819 35412 ft 424 kts 229°
2026-04-17 07:45 23.49158 116.82528 35654 ft 425 kts 229°
2026-04-17 07:45 23.47087 116.80180 35892 ft 427 kts 229°
2026-04-17 07:45 23.42719 116.75735 35976 ft 432 kts 224°
2026-04-17 07:46 23.38001 116.71706 35978 ft 433 kts 221°
2026-04-17 07:46 23.33207 116.67713 35907 ft 434 kts 221°
2026-04-17 07:47 23.28433 116.63742 35883 ft 434 kts 221°
2026-04-17 07:47 23.23670 116.59789 35871 ft 434 kts 221°
2026-04-17 07:48 23.18913 116.55844 35864 ft 433 kts 221°
2026-04-17 07:48 23.14120 116.51874 35862 ft 433 kts 221°
2026-04-17 07:49 23.09308 116.47890 35861 ft 433 kts 221°
2026-04-17 07:49 23.04528 116.43938 35863 ft 433 kts 221°
2026-04-17 07:50 22.99907 116.40118 35861 ft 433 kts 221°
2026-04-17 07:50 22.95143 116.36186 35862 ft 434 kts 221°
2026-04-17 07:51 22.90367 116.32222 35868 ft 434 kts 221°
2026-04-17 07:51 22.85580 116.28245 35870 ft 436 kts 221°
2026-04-17 07:52 22.80693 116.24183 35868 ft 448 kts 221°
2026-04-17 07:52 22.75729 116.20069 35871 ft 451 kts 221°
2026-04-17 07:53 22.70733 116.15936 35877 ft 451 kts 221°
2026-04-17 07:53 22.65733 116.11826 35877 ft 451 kts 221°
2026-04-17 07:54 22.60740 116.07722 35876 ft 452 kts 221°
2026-04-17 07:54 22.55739 116.03612 35880 ft 452 kts 222°
2026-04-17 07:55 22.51358 115.98829 35882 ft 446 kts 235°
2026-04-17 07:55 22.48179 115.93097 35884 ft 442 kts 247°
2026-04-17 07:56 22.46341 115.86779 35880 ft 442 kts 259°
2026-04-17 07:56 22.45722 115.80228 35878 ft 442 kts 265°
2026-04-17 07:57 22.45315 115.73590 35877 ft 441 kts 265°
2026-04-17 07:57 22.44918 115.67015 35877 ft 441 kts 265°
2026-04-17 07:58 22.44516 115.60415 35878 ft 441 kts 265°
2026-04-17 07:58 22.44112 115.53827 35875 ft 441 kts 265°
2026-04-17 07:59 22.43704 115.47226 35877 ft 441 kts 265°
2026-04-17 07:59 22.43294 115.40631 35874 ft 442 kts 265°
2026-04-17 08:00 22.42881 115.34011 35877 ft 441 kts 265°
2026-04-17 08:00 22.42462 115.27380 35874 ft 441 kts 265°
2026-04-17 08:01 22.42043 115.20759 35879 ft 442 kts 265°
2026-04-17 08:01 22.41620 115.14146 35876 ft 441 kts 265°
2026-04-17 08:02 22.41195 115.07545 35876 ft 441 kts 265°
2026-04-17 08:02 22.40766 115.00915 35878 ft 440 kts 265°
2026-04-17 08:03 22.40336 114.94299 35878 ft 440 kts 265°
2026-04-17 08:03 22.39907 114.87740 35875 ft 440 kts 265°
2026-04-17 08:04 22.39472 114.81146 35878 ft 440 kts 265°
2026-04-17 08:04 22.39034 114.74562 35877 ft 440 kts 265°
2026-04-17 08:05 22.38596 114.68018 35878 ft 440 kts 265°
2026-04-17 08:05 22.38155 114.61425 35886 ft 440 kts 265°
2026-04-17 08:06 22.37707 114.54825 35883 ft 439 kts 265°
2026-04-17 08:06 22.37483 114.51536 35668 ft 436 kts 265°
2026-04-17 08:06 22.37263 114.48295 35222 ft 432 kts 265°
2026-04-17 08:07 22.37066 114.45108 34801 ft 426 kts 268°
2026-04-17 08:07 22.37457 114.42077 34286 ft 417 kts 288°
2026-04-17 08:07 22.38820 114.39356 33812 ft 409 kts 303°
2026-04-17 08:07 22.40809 114.37128 32855 ft 416 kts 318°
2026-04-17 08:08 22.43346 114.35581 31881 ft 426 kts 334°
2026-04-17 08:08 22.46228 114.34891 31018 ft 435 kts 351°
2026-04-17 08:08 22.49301 114.35174 30187 ft 444 kts
2026-04-17 08:08 22.52149 114.36462 29341 ft 452 kts 28°
2026-04-17 08:09 22.54385 114.38509 28532 ft 458 kts 47°
2026-04-17 08:09 22.56087 114.41489 27728 ft 457 kts 68°
2026-04-17 08:09 22.56801 114.44779 27071 ft 449 kts 85°
2026-04-17 08:09 22.56995 114.48087 26387 ft 442 kts 88°
2026-04-17 08:10 22.57149 114.51402 25659 ft 436 kts 87°
2026-04-17 08:10 22.57331 114.54604 24973 ft 430 kts 86°
2026-04-17 08:10 22.57543 114.57798 24294 ft 423 kts 88°
2026-04-17 08:10 22.57368 114.60910 23600 ft 413 kts 107°
2026-04-17 08:11 22.56371 114.63746 22976 ft 399 kts 124°
2026-04-17 08:11 22.54733 114.66061 22401 ft 380 kts 143°
2026-04-17 08:11 22.52644 114.67718 22363 ft 364 kts 158°
2026-04-17 08:11 22.50383 114.68709 22394 ft 342 kts 172°
2026-04-17 08:12 22.48124 114.69067 22411 ft 320 kts 186°
2026-04-17 08:12 22.46009 114.68848 22433 ft 303 kts 198°
2026-04-17 08:12 22.44009 114.68171 22460 ft 300 kts 209°
2026-04-17 08:12 22.42198 114.67075 22485 ft 296 kts 220°
2026-04-17 08:13 22.40693 114.65655 22505 ft 293 kts 231°
2026-04-17 08:13 22.39464 114.63897 22510 ft 291 kts 242°
2026-04-17 08:13 22.38610 114.61917 22511 ft 290 kts 252°
2026-04-17 08:14 22.37956 114.57687 22102 ft 288 kts 264°
2026-04-17 08:14 22.37792 114.55518 21774 ft 287 kts 264°
2026-04-17 08:14 22.37635 114.53384 21450 ft 286 kts 264°
2026-04-17 08:14 22.37476 114.51241 21008 ft 287 kts 264°
2026-04-17 08:15 22.37317 114.49094 20649 ft 286 kts 264°
2026-04-17 08:15 22.37162 114.46988 20596 ft 279 kts 264°
2026-04-17 08:15 22.37015 114.44909 20511 ft 297 kts 265°
2026-04-17 08:15 22.36856 114.42553 20234 ft 327 kts 265°
2026-04-17 08:16 22.36683 114.39986 19945 ft 353 kts 265°
2026-04-17 08:16 22.36502 114.37322 19640 ft 360 kts 265°
2026-04-17 08:16 22.36317 114.34621 19340 ft 360 kts 265°
2026-04-17 08:16 22.36131 114.31914 19023 ft 358 kts 265°
2026-04-17 08:17 22.35947 114.29255 18730 ft 357 kts 265°
2026-04-17 08:17 22.35764 114.26594 18420 ft 355 kts 265°
2026-04-17 08:17 22.35580 114.23943 18099 ft 354 kts 265°
2026-04-17 08:17 22.35395 114.21300 17761 ft 352 kts 265°
2026-04-17 08:18 22.35212 114.18700 17423 ft 350 kts 265°
2026-04-17 08:18 22.35028 114.16083 17051 ft 349 kts 265°
2026-04-17 08:18 22.34843 114.13449 16662 ft 349 kts 265°
2026-04-17 08:18 22.34658 114.10838 16282 ft 348 kts 266°
2026-04-17 08:19 22.34476 114.08264 15914 ft 348 kts 266°
2026-04-17 08:19 22.34290 114.05653 15519 ft 348 kts 266°
2026-04-17 08:19 22.34107 114.03065 15131 ft 347 kts 266°
2026-04-17 08:19 22.33893 114.00442 14739 ft 347 kts 264°
2026-04-17 08:20 22.33545 113.97894 14349 ft 347 kts 260°
2026-04-17 08:20 22.32716 113.95427 13940 ft 350 kts 243°
2026-04-17 08:20 22.31292 113.93307 13547 ft 353 kts 229°
2026-04-17 08:20 22.29439 113.91534 13155 ft 355 kts 222°
2026-04-17 08:21 22.27511 113.89865 12764 ft 355 kts 221°
2026-04-17 08:21 22.25583 113.88216 12382 ft 354 kts 221°
2026-04-17 08:21 22.23634 113.86544 12005 ft 352 kts 221°
2026-04-17 08:21 22.21747 113.84922 11632 ft 351 kts 221°
2026-04-17 08:22 22.19843 113.83282 11254 ft 350 kts 221°
2026-04-17 08:22 22.18074 113.81757 10952 ft 347 kts 221°
2026-04-17 08:22 22.16419 113.80331 10885 ft 337 kts 221°
2026-04-17 08:22 22.14626 113.78787 10883 ft 323 kts 221°
2026-04-17 08:23 22.12889 113.77290 10882 ft 310 kts 221°
2026-04-17 08:23 22.11244 113.75873 10883 ft 297 kts 221°
2026-04-17 08:23 22.09651 113.74500 10883 ft 286 kts 221°
2026-04-17 08:23 22.08140 113.73197 10882 ft 274 kts 221°
2026-04-17 08:24 22.06665 113.71927 10878 ft 262 kts 221°
2026-04-17 08:24 22.05265 113.70721 10875 ft 250 kts 221°
2026-04-17 08:24 22.03938 113.69578 10865 ft 237 kts 221°
2026-04-17 08:24 22.02692 113.68507 10874 ft 224 kts 221°
2026-04-17 08:25 22.01502 113.67477 10831 ft 212 kts 222°
2026-04-17 08:25 22.00379 113.66493 10606 ft 207 kts 222°
2026-04-17 08:25 21.99258 113.65511 10326 ft 204 kts 222°
2026-04-17 08:25 21.98177 113.64562 10059 ft 199 kts 221°
2026-04-17 08:26 21.97121 113.63638 9792 ft 196 kts 221°
2026-04-17 08:26 21.96065 113.62716 9527 ft 192 kts 221°
2026-04-17 08:26 21.95056 113.61836 9269 ft 188 kts 221°
2026-04-17 08:26 21.94070 113.60976 9015 ft 184 kts 221°
2026-04-17 08:27 21.93083 113.60117 8763 ft 181 kts 221°
2026-04-17 08:27 21.92116 113.59275 8511 ft 177 kts 219°
2026-04-17 08:27 21.91037 113.58643 8243 ft 175 kts 200°
2026-04-17 08:27 21.89845 113.58427 7909 ft 175 kts 181°
2026-04-17 08:28 21.88623 113.58635 7513 ft 178 kts 165°
2026-04-17 08:28 21.87452 113.59087 7133 ft 179 kts 153°
2026-04-17 08:28 21.86455 113.59888 6762 ft 180 kts 132°
2026-04-17 08:28 21.85772 113.61001 6403 ft 179 kts 111°
2026-04-17 08:29 21.85476 113.62281 6059 ft 176 kts 91°
2026-04-17 08:29 21.85588 113.63579 5712 ft 174 kts 72°
2026-04-17 08:29 21.85966 113.64784 5452 ft 166 kts 68°
2026-04-17 08:29 21.86371 113.65929 5185 ft 160 kts 68°
2026-04-17 08:30 21.86887 113.66974 4851 ft 158 kts 50°
2026-04-17 08:30 21.87675 113.67778 4503 ft 157 kts 31°
2026-04-17 08:30 21.88690 113.68167 4136 ft 155 kts
2026-04-17 08:30 21.89762 113.68148 3792 ft 155 kts 350°
2026-04-17 08:31 21.90815 113.67924 3460 ft 154 kts 343°
2026-04-17 08:31 21.91855 113.67606 3143 ft 153 kts 341°
2026-04-17 08:31 21.92866 113.67261 3043 ft 152 kts 340°
2026-04-17 08:31 21.93888 113.66898 3040 ft 154 kts 339°
2026-04-17 08:32 21.94903 113.66530 3036 ft 154 kts 340°
2026-04-17 08:32 21.95930 113.66155 3031 ft 154 kts 339°
2026-04-17 08:32 21.96917 113.65791 3031 ft 154 kts 339°
2026-04-17 08:32 21.97919 113.65420 3031 ft 154 kts 339°
2026-04-17 08:33 21.98924 113.65048 2958 ft 155 kts 339°
2026-04-17 08:33 21.99940 113.64671 2765 ft 154 kts 339°
2026-04-17 08:33 22.00951 113.64298 2570 ft 154 kts 339°
2026-04-17 08:33 22.01971 113.63921 2374 ft 153 kts 338°
2026-04-17 08:34 22.02982 113.63547 2177 ft 153 kts 339°
2026-04-17 08:34 22.03985 113.63177 1979 ft 152 kts 339°
2026-04-17 08:34 22.05000 113.62803 1781 ft 152 kts 338°
2026-04-17 08:34 22.06007 113.62432 1584 ft 152 kts 339°
2026-04-17 08:35 22.07016 113.62060 1387 ft 151 kts 339°
2026-04-17 08:35 22.08001 113.61697 1195 ft 150 kts 340°
2026-04-17 08:35 22.08989 113.61333 1001 ft 149 kts 340°
2026-04-17 08:35 22.09968 113.60971 813 ft 148 kts 340°
2026-04-17 08:36 22.10937 113.60616 630 ft 148 kts 340°
2026-04-17 08:36 22.11924 113.60247 420 ft 147 kts 341°
2026-04-17 08:36 22.12896 113.59895 226 ft 147 kts 341°
2026-04-17 08:36 22.13860 113.59535 31 ft 142 kts 342°
2026-04-17 08:37 22.14676 113.59239 25 ft 101 kts 341°
2026-04-17 08:37 22.15165 113.59055 23 ft 54 kts 343°
2026-04-17 08:37 22.15512 113.58928 22 ft 47 kts 344°
2026-04-17 08:37 22.15791 113.58826 21 ft 36 kts 341°
2026-04-17 08:38 22.15992 113.58752 21 ft 28 kts 340°
2026-04-17 08:38 22.16130 113.58701 21 ft 16 kts 341°
2026-04-17 08:38 22.16201 113.58632 21 ft 13 kts 289°
2026-04-17 08:38 22.16221 113.58539 20 ft 14 kts 281°
2026-04-17 08:39 22.16240 113.58426 20 ft 15 kts 279°
2026-04-17 08:39 22.16256 113.58312 19 ft 15 kts 271°
2026-04-17 08:39 22.16229 113.58195 19 ft 16 kts 252°
2026-04-17 08:39 22.16191 113.58079 19 ft 16 kts 251°
2026-04-17 08:40 22.16153 113.57961 20 ft 16 kts 251°
2026-04-17 08:40 22.16120 113.57859 21 ft 13 kts 252°
2026-04-17 08:40 22.16080 113.57770 22 ft 13 kts 219°
2026-04-17 08:40 22.15994 113.57733 22 ft 13 kts 193°
2026-04-17 08:41 22.15900 113.57708 22 ft 14 kts 194°
2026-04-17 08:41 22.15814 113.57684 22 ft 7 kts 196°
2026-04-17 08:41 22.15785 113.57657 22 ft 6 kts 259°
2026-04-17 08:41 22.15792 113.57614 23 ft 3 kts 289°
2026-04-17 08:42 22.15800 113.57592 23 ft 2 kts 290°
2026-04-17 08:42 22.15801 113.57589 23 ft 0 kts 290°